Fairchild AFB, WA

3:28 PM PST on December 10, 2016 (GMT -0800)
Fairchild Air Force Base

Weather History for KSKA - June, 2014

Change the Weather History Date:

Thursday, June 5, 2014

  Actual Average Record
Temperature  
Mean Temperature 60 °F -  
Max Temperature 72 °F 65 °F 92 °F (2016)
Min Temperature 48 °F 45 °F 41 °F (2001)
Degree Days  
Heating Degree Days 5    
Growing Degree Days 10 (Base 50)    
Moisture  
Dew Point 26 °F    
Average Humidity 31    
Maximum Humidity 61    
Minimum Humidity 12    
Precipitation  
Precipitation 0.00 in - - ()
Sea Level Pressure  
Sea Level Pressure 29.97 in    
Wind  
Wind Speed 9 mph (WNW)    
Max Wind Speed 14 mph    
Max Gust Speed 18 mph    
Visibility 10 miles    
Events      
Averages and records for this station are not official NWS values.
T = Trace of Precipitation, MM = Missing Value Source: NWS Daily Summary

Daily Weather History Graph

Daily Weather History Graph

Search for Another Location

Airport or City:

Trip Planner

Search our weather history database for the weather conditions in past years. The results will help you decide how hot, cold, wet, or windy it might be!

Date:

Astronomy

Jun. 05, 2014 Rise Set
Actual Time 4:54 AM PDT 8:44 PM PDT
Civil Twilight 4:14 AM PDT 9:23 PM PDT
Nautical Twilight 3:20 AM PDT 10:18 PM PDT
Astronomical Twilight 2:00 AM PDT 11:39 PM PDT
Moon 12:40 PM PDT (6/5) 12:51 AM PDT (6/5)
Length of Visible Light 17h 09m
Length of Day
15h 49m
Waxing Crescent, 49% of the Moon is Illuminated
Jun 5
Waxing Crescent
Jun 5
First Quarter
Jun 12
Full
Jun 19
Last Quarter
Jun 27
New

Hourly Weather History & Observations

Time (PDT) Temp. Dew Point Humidity Pressure Visibility Wind Dir Wind Speed Gust Speed Precip Events Conditions
12:58 AM 54.9 °F 34.3 °F 46% 29.86 in 10.0 mi WSW 10.4 mph - N/A   Clear
1:58 AM 51.6 °F 35.2 °F 54% 29.86 in 10.0 mi West 10.4 mph - N/A   Clear
2:58 AM 48.0 °F 35.1 °F 61% 29.90 in 10.0 mi NNW 8.1 mph - N/A   Clear
3:58 AM 49.5 °F 35.8 °F 59% 29.93 in 10.0 mi West 5.8 mph - N/A   Clear
4:58 AM 49.1 °F 35.2 °F 59% 29.94 in 10.0 mi NW 5.8 mph - N/A   Clear
5:58 AM 52.0 °F 32.7 °F 48% 29.95 in 10.0 mi NW 13.8 mph - N/A   Clear
6:58 AM 57.2 °F 30.0 °F 36% 29.98 in 10.0 mi NW 9.2 mph - N/A   Clear
7:58 AM 60.6 °F 25.3 °F 26% 30.00 in 10.0 mi WNW 13.8 mph - N/A   Clear
8:58 AM 62.4 °F 22.8 °F 22% 30.00 in 10.0 mi NNW 11.5 mph - N/A   Clear
10:58 AM 66.6 °F 22.6 °F 19% 30.01 in 10.0 mi NW 9.2 mph 18.4 mph N/A   Clear
11:58 AM 68.0 °F 19.6 °F 16% 30.02 in 10.0 mi WNW 8.1 mph - N/A   Clear
12:58 PM 69.6 °F 18.5 °F 14% 30.02 in 10.0 mi WSW 11.5 mph - N/A   Clear
1:58 PM 70.7 °F 14.9 °F 12% 30.02 in 10.0 mi West 10.4 mph - N/A   Clear
2:58 PM 71.8 °F 19.0 °F 14% 30.01 in 10.0 mi West 10.4 mph 18.4 mph N/A   Clear
3:58 PM 71.2 °F 20.5 °F 15% 30.00 in 10.0 mi WNW 8.1 mph - N/A   Clear
4:58 PM 72.0 °F 18.5 °F 13% 29.99 in 10.0 mi WNW 9.2 mph - N/A   Clear
5:58 PM 70.7 °F 17.2 °F 13% 29.98 in 10.0 mi NW 9.2 mph - N/A   Clear
6:58 PM 70.0 °F 19.0 °F 14% 29.97 in 10.0 mi WNW 5.8 mph - N/A   Clear
7:58 PM 65.8 °F 25.7 °F 22% 29.97 in 10.0 mi West 5.8 mph - N/A   Clear
8:58 PM 63.3 °F 24.1 °F 22% 29.98 in 10.0 mi WNW 3.5 mph - 0.00 in   Clear
9:58 PM 61.3 °F 24.4 °F 24% 30.00 in 10.0 mi North 4.6 mph - N/A   Clear
10:58 PM 52.2 °F 34.0 °F 50% 30.01 in 10.0 mi WNW 3.5 mph - N/A   Clear
11:58 PM 49.5 °F 30.9 °F 49% 30.01 in 10.0 mi WNW 2.3 mph - N/A   Scattered Clouds